Location: Township of Marena
(38.1747°N, 99.6798°W)
Time: 14:11:20
(UTC+00:00)

Cosmos 44 - Pass Details

Date: 26 October 2020
Orbit: 577 x 784 km, 65.1° (Epoch: 28 November)

Event Time Altitude Azimuth Distance (km) Brightness Sun altitude
Rises 00:45:14 0° 221° (SW) 2,826 7.2 -12.1°
Reaches altitude 10° 00:47:28 10° 225° (SW) 1,950 6.4 -12.5°
Maximum altitude 00:51:46 55° 304° (WNW) 762 3.8 -13.4°
Drops below altitude 10° 00:56:22 10° 22° (NNE) 2,077 5.5 -14.3°
Enters shadow 00:58:06 - 26° (NNE) 2,748 6.1 -14.6°
